Tracking 34305 objects as of 7-Jun-2026
HD Live streaming from Space Station
objects crossing your sky now

KUIPER-00043

Track KUIPER-00043 now!
10-day predictions
KUIPER-00043 is classified as:


NORAD ID: 64504
Int'l Code: 2025-134E
Perigee: 636.4 km
Apogee: 637.0 km
Inclination: 51.9 °
Period: 97.3 minutes
Semi major axis: 7007 km
RCS: Unknown
Launch date: June 23, 2025
Source: United States (US)
Launch site: AIR FORCE EASTERN TEST RANGE (AFETR)
Your satellite tracking list
Your tracking list is empty




NASA's NSSDC Master Catalog

Two Line Element Set (TLE):
1 64504U 25134E   26157.39824485  .00001880  00000-0  27547-3 0  9993
2 64504  51.9010 200.7720 0000441  96.4672 263.6341 14.79935160 53219
Source of the keplerian elements: AFSPC